Terminal Aerodrome Forecast
Issued by NWS Bismarck, ND

Home | Current Version | Previous Version | Graphics & Text | Print | Product List | Glossary On
Versions: 1 2 3 4 5 6 7 8 9 10 11 12 13 14
233
FTUS43 KBIS 240220 AAB
TAFBIS
TAF AMD
KBIS 240220Z 2402/2424 07016KT P6SM OVC006
     FM240900 06015KT P6SM -RA OVC008
     FM241200 04008KT 4SM -RA BR OVC008
     FM241500 01009KT P6SM VCSH OVC008
     FM241900 35012KT P6SM OVC012=

USA.gov is the U.S. government's official web portal to all federal, state and local government web resources and services.